329  
ASUS43 KMPX 290910  
RWRMN  
WEATHER ROUNDUP FOR MINNESOTA  
NATIONAL WEATHER SERVICE TWIN CITIES/CHANHASSEN MN  
400 AM CDT SAT APR 29 2017  
 
NOTE: "FAIR" INDICATES FEW OR NO CLOUDS BELOW 12,000 FEET WITH NO  
SIGNIFICANT WEATHER AND/OR S TO VISIBILITY
. N/A MEANS  
CURRENT SKY AND/OR WEATHER CONDITIONS ARE NOT AVAILABLE.  
 
MNZ060>063-068>070-291000-  
TWIN CITIES METRO  
 
CITY SKY/WX TMP DP RH WIND PRES REMARKS
 
TWIN CITIES CLOUDY 40 26 57 NE13 30.20F  
ST PAUL PTCLDY 39 28 64 NE7 30.21F  
CRYSTAL PTCLDY 38 24 57 NE7 30.19F  
LAKEVILLE CLEAR 37 28 70 N12G17 30.17R  
EDEN PRAIRIE PTCLDY 41 26 55 N8 30.17F  
SOUTH ST PAUL PTCLDY 40 28 61 NE9 30.20R  
LAKE ELMO FAIR 37 30 75 NE6 30.21S  

 
MNZ001>005-007-008-013>017-022>024-027-028-291000-  
NORTHWEST MINNESOTA  
 
CITY SKY/WX TMP DP RH WIND PRES REMARKS
 
BEMIDJI CLEAR 21 17 84 CALM 30.22R  
HALLOCK CLEAR 27 21 80 CALM 30.24S  
ROSEAU CLEAR 28 19 69 NW3 30.23S  
WARROAD CLEAR 28 19 69 N3 30.24S  
THIEF RVR FALL CLEAR 35 12 38 NE6 30.24R WCI 30  
CROOKSTON CLEAR 30 27 86 CALM 30.24S  
FOSSTON CLEAR 19 14 79 CALM 30.24R  
DETROIT LAKES CLEAR 30 27 86 CALM 30.23S  
MOORHEAD CLEAR 30 27 86 CALM 30.24R  
PARK RAPIDS CLEAR 28 19 69 CALM 30.21R  
MAHNOMEN FAIR 29 25 86 SE3 30.23R  

 
MNZ006-009>011-018-025>026-291000-  
NORTH CENTRAL MINNESOTA  
 
CITY SKY/WX TMP DP RH WIND PRES REMARKS
 
BAUDETTE CLEAR 27 19 72 N3 30.22R  
FLAG ISLAND CLEAR 34 23 64 CALM 30.23S  
INTL FALLS CLEAR 22 19 89 CALM 30.23R  
WASKISH CLEAR 27 27 100 CALM 30.22S  
BIG FORK CLEAR 25 23 93 CALM 30.21R  
LONGVILLE CLEAR 27 27 100 CALM 30.23R  
GRAND RAPIDS CLEAR 25 22 88 S3 30.24R  
CRANE LAKE CLEAR 19 18 93 CALM 30.25R  
ORR CLEAR 23 19 86 CALM 30.20R  
COOK CLEAR 21 21 100 CALM 30.22R  
WALKER FAIR 27 24 87 W3 30.23R  

 
MNZ012-019>021-037-291000-  
NORTHEAST MINNESOTA  
 
CITY SKY/WX TMP DP RH WIND PRES REMARKS
 
DULUTH CLEAR 28 24 85 CALM 30.22R  
ELY CLEAR 21 21 100 CALM 30.21R  
HIBBING CLEAR 22 21 96 CALM 30.21R  
EVELETH CLEAR 24 22 92 CALM 30.22R  
DULUTH HARBOR CLEAR 34 28 80 SW3 30.26R  
TWO HARBORS CLEAR 34 27 75 NW3 30.22R  
SILVER BAY CLEAR 27 25 93 CALM 30.22R  
GRAND MARAIS N/A 33 25 72 NW8 30.22R WCI 26  
G MARAIS ARPRT CLEAR 23 18 80 CALM 30.19R  

 
MNZ029>031-032-039>041-046>048-054>057-064-291000-  
WEST CENTRAL MINNESOTA  
 
CITY SKY/WX TMP DP RH WIND PRES REMARKS
 
FERGUS FALLS CLEAR 36 21 55 CALM 30.23R  
WHEATON CLEAR 30 27 86 CALM 30.25R  
MORRIS CLOUDY 30 21 69 NE6 30.22R WCI 24  
ALEXANDRIA CLEAR 35 20 54 NE5 30.22R WCI 31  
ELBOW LAKE FAIR 34 30 86 NE5 30.22S WCI 30  
WADENA CLEAR 25 21 86 CALM 30.22S  
GLENWOOD CLOUDY 32 21 64 NE6 30.21F WCI 26  
APPLETON PTCLDY 27 21 80 NE5 30.23R WCI 21  
BENSON PTCLDY 28 21 74 CALM 30.24R  
ORTONVILLE CLOUDY 32 23 69 NE5 30.22R WCI 27  
MADISON MOCLDY 30 27 86 CALM 30.21R  
WILLMAR FAIR 37 27 65 E8 30.22R  

 
MNZ033>034-036-042>043-049>051-058-059-291000-  
CENTRAL MINNESOTA  
 
CITY SKY/WX TMP DP RH WIND PRES REMARKS
 
ST CLOUD CLOUDY 35 25 66 E5 30.20F WCI 31  
SAUK CENTRE FAIR 34 23 63 NE5 30.21F WCI 30  
PAYNESVILLE CLOUDY 32 25 76 CALM 30.21F  
AITKIN CLEAR 28 25 86 CALM 30.22R  
PINE RIVER CLEAR 25 21 86 CALM 30.25S  
BRAINERD CLEAR 28 25 88 CALM 30.22S  
STAPLES CLEAR 25 21 86 CALM 30.22S  
LONG PRAIRIE FAIR 28 23 80 CALM 30.22S  
LITTLE FALLS CLEAR 28 23 80 CALM 30.22F  
LITCHFIELD PTCLDY 39 27 60 E6 30.21F  
BUFFALO CLOUDY 37 27 66 NE6 30.21F  
MAPLE LAKE PTCLDY 37 29 73 E7 30.21F  
HUTCHINSON CLEAR 38 29 71 NE8 30.19F  

 
MNZ037-044-045-052-053-291000-  
EAST CENTRAL MINNESOTA  
 
CITY SKY/WX TMP DP RH WIND PRES REMARKS
 
PRINCETON CLOUDY 36 27 69 NE5 30.21F  
MORA CLOUDY 30 27 86 CALM 30.23F  
CAMBRIDGE CLOUDY 36 27 69 CALM 30.20F  
RUSH CITY CLOUDY 31 26 81 CALM 30.22F  
MOOSE LAKE CLEAR 27 25 93 CALM 30.22R  
HINCKLEY FAIR 28 27 93 N5 30.24R WCI 23  
CLOQUET CLEAR 27 21 80 CALM 30.23R  
MCGREGOR CLEAR 30 27 86 CALM 30.24R  

 
MNZ071>073-080-081-089-090-097-098-291000-  
SOUTHWEST MINNESOTA  
 
CITY SKY/WX TMP DP RH WIND PRES REMARKS
 
MONTEVIDEO PTCLDY 32 21 64 CALM 30.22R  
GRANITE FALLS CLOUDY 31 26 82 NW3 30.23R  
CANBY CLOUDY 34 26 72 CALM 30.21S  
MARSHALL CLOUDY 30 25 81 NW8 30.20F WCI 22  
REDWOOD FALLS MOCLDY 37 23 56 N5 30.19S  
OLIVIA CLOUDY 34 27 75 NE6 30.19S WCI 29  
PIPESTONE CLOUDY 36 19 51 NE10 30.12F  
WINDOM CLOUDY 36 27 69 N13 30.13F  
WORTHINGTON CLOUDY 34 25 69 N14 30.11F WCI 25  
JACKSON CLOUDY 32 30 93 N5 30.10F WCI 27  
TRACY PTCLDY 36 27 69 N9 30.18S  
SLAYTON PTCLDY 34 25 70 N9 30.15F WCI 27  

 
MNZ065>067-074>077-082>085-091>093-291000-  
SOUTH CENTRAL MINNESOTA  
 
CITY SKY/WX TMP DP RH WIND PRES REMARKS
 
MANKATO CLOUDY 40 28 62 NE14 30.13F  
NEW ULM PTCLDY 39 25 56 NE8 30.16F  
ST JAMES MOCLDY 36 28 75 N8 30.16F  
FAIRMONT CLOUDY 36 30 79 N12 30.11F  
GLENCOE MOCLDY 39 31 72 NE6 30.17F  
FARIBAULT CLOUDY 37 30 75 N9 30.14F  
OWATONNA CLOUDY 37 28 70 N12 30.12F  
WASECA PTCLDY 37 30 75 NE16 30.12F  
ALBERT LEA PTCLDY 36 28 75 N8 30.12R  

 
MNZ078>079-086>088-094>096-291000-  
SOUTHEAST MINNESOTA  
 
CITY SKY/WX TMP DP RH WIND PRES REMARKS
 
ROCHESTER PTCLDY 36 30 79 N6 30.14R  
RED WING CLEAR 39 27 60 NE9G20 30.17R  
STANTON CLEAR 37 31 78 NE9 30.15R  
DODGE CENTER CLOUDY 36 30 80 N8 30.12R  
WINONA CLOUDY 37 34 87 NW3 30.16R  
AUSTIN PTCLDY 37 30 75 NE3 30.12R  
PRESTON PTCLDY 35 30 82 N7 30.13R WCI 29  

 
ABBREVIATIONS USED IN REMARKS  
TC - TEMPERATURES IN CELSIUS  
WCI - WIND CHILL INDEX  
HX - HEAT INDEX  
VSB - VISIBILITY  

 
 
 
CLICK HERE TO GO TO PREVIOUS BULLETINS.

The Nexlab MN Page Main Text Page